N5PRN Weather Reports


time (UTC)temp
C
wind
direction
speed
KPH
gust
KPH
rain 1hr
cm
rain 24hr
cm
rain mn
cm
humidity
%
barometer
mb
20260510054755 19 245 0.0 0.0 0.00 0.00 0.00 99 1012.4
20260510054252 19 241 0.0 0.0 0.00 0.00 0.00 99 1012.8
20260510053751 19 237 0.0 0.0 0.00 0.00 0.00 99 1012.8
20260510053242 19 229 1.6 1.6 0.00 0.00 0.00 99 1012.8
20260510052737 19 239 0.0 0.0 0.00 0.00 0.00 99 1013.0
20260510052228 19 253 0.0 0.0 0.00 0.00 0.00 99 1012.9
20260510051724 19 256 1.6 1.6 0.00 0.00 0.00 99 1012.9
20260510051221 19 238 1.6 3.2 0.00 0.00 0.00 99 1012.8
20260510050718 19 233 0.0 0.0 0.00 0.00 0.00 99 1012.8
20260510050215 19 250 0.0 0.0 0.00 0.00 0.00 99 1012.6
20260510045712 19 250 0.0 0.0 0.00 2.03 2.03 99 1012.7
20260510045209 19 255 0.0 0.0 0.00 2.03 2.03 99 1012.7
20260510044704 19 258 0.0 0.0 0.00 2.03 2.03 99 1012.8
20260510044203 19 244 0.0 0.0 0.00 2.03 2.03 99 1012.6
20260510043658 19 226 0.0 0.0 0.00 2.03 2.03 99 1012.9
20260510043155 19 244 1.6 1.6 0.00 2.03 2.03 99 1012.8
20260510042652 19 236 0.0 0.0 0.00 2.03 2.03 99 1013.0
20260510042148 19 244 1.6 1.6 0.00 2.03 2.03 99 1013.1
20260510041646 19 242 0.0 1.6 0.00 2.03 2.03 99 1013.0
20260510041143 19 254 1.6 3.2 0.00 2.03 2.03 99 1013.0
20260510040640 19 220 3.2 4.8 0.00 2.03 2.03 99 1013.1
20260510040136 19 274 0.0 0.0 0.00 2.03 2.03 99 1012.8
20260510035632 19 235 0.0 1.6 0.00 2.03 2.03 99 1012.9
20260510035127 19 240 0.0 1.6 0.00 2.03 2.03 99 1012.9
20260510034624 19 248 1.6 3.2 0.00 2.03 2.03 99 1012.9
20260510034121 19 245 0.0 0.0 0.00 2.03 2.03 99 1012.8
20260510033618 18 274 0.0 0.0 0.00 2.03 2.03 99 1012.6
20260510033115 18 267 0.0 0.0 0.00 2.03 2.03 99 1012.6
20260510032611 18 267 0.0 0.0 0.00 2.03 2.03 99 1012.5
20260510032107 18 255 0.0 0.0 0.00 2.03 2.03 99 1012.7
20260510031602 18 253 0.0 0.0 0.00 2.03 2.03 99 1012.8
20260510031059 18 252 0.0 0.0 0.00 2.03 2.03 99 1012.6
20260510030554 18 266 0.0 0.0 0.00 2.03 2.03 99 1012.5
20260510030051 18 266 0.0 0.0 0.00 2.03 2.03 99 1012.6
20260510025548 18 267 0.0 0.0 0.00 2.03 2.03 99 1012.4
20260510025046 18 266 0.0 0.0 0.00 2.03 2.03 99 1012.4
20260510024543 18 266 0.0 0.0 0.00 2.03 2.03 99 1012.5
20260510024038 18 266 0.0 0.0 0.00 2.03 2.03 99 1012.3
20260510023535 18 271 0.0 0.0 0.00 2.03 2.03 99 1012.5
20260510023032 19 280 0.0 0.0 0.00 2.03 2.03 99 1012.3
20260510022531 19 281 0.0 0.0 0.00 2.03 2.03 99 1012.3
20260510022026 19 280 0.0 0.0 0.00 2.03 2.03 99 1012.2
20260510021523 19 262 0.0 0.0 0.00 2.03 2.03 99 1012.1
20260510021021 19 264 0.0 0.0 0.00 2.03 2.03 99 1012.1
20260510020515 19 286 0.0 0.0 0.00 2.03 2.03 99 1012.3
20260510020010 19 286 0.0 0.0 0.00 2.03 2.03 99 1012.2
20260510015506 19 286 0.0 0.0 0.00 2.03 2.03 99 1012.2
20260510015002 19 286 0.0 0.0 0.00 2.03 2.03 99 1012.0
20260510014500 19 286 0.0 0.0 0.00 2.03 2.03 99 1012.0
20260510013956 19 286 0.0 0.0 0.00 2.03 2.03 99 1011.9
20260510013451 19 286 0.0 0.0 0.00 2.03 2.03 99 1011.8
20260510012946 19 286 0.0 0.0 0.00 2.03 2.03 99 1011.8
20260510012442 19 286 0.0 0.0 0.00 2.03 2.03 99 1011.9
20260510011936 20 287 0.0 0.0 0.00 2.03 2.03 99 1011.7
20260510011426 20 245 0.0 0.0 0.00 2.03 2.03 99 1011.5
20260510010922 20 244 0.0 0.0 0.00 2.03 2.03 99 1011.5
20260510010420 20 244 0.0 0.0 0.00 2.03 2.03 99 1011.2
20260510005916 20 243 0.0 0.0 0.00 2.03 2.03 99 1011.3
20260510005412 20 278 0.0 0.0 0.00 2.03 2.03 99 1011.1
20260510004910 20 279 0.0 0.0 0.00 2.03 2.03 99 1011.1
20260510004407 20 281 0.0 0.0 0.00 2.03 2.03 99 1011.1
20260510003905 20 274 0.0 0.0 0.00 2.03 2.03 99 1011.0
20260510003402 20 270 0.0 0.0 0.00 2.03 2.03 99 1010.7
20260510002901 20 270 0.0 0.0 0.00 2.03 2.03 99 1010.8
20260510002358 20 242 0.0 0.0 0.00 2.03 2.03 99 1011.0
20260510001854 20 227 0.0 0.0 0.00 2.03 2.03 99 1010.9
20260510001353 20 285 0.0 0.0 0.00 2.03 2.03 99 1011.1
20260510000849 20 287 0.0 0.0 0.00 2.03 2.03 99 1011.1
20260510000348 20 295 0.0 0.0 0.00 2.03 2.03 99 1011.1
20260509235842 20 247 0.0 0.0 0.00 2.03 2.03 99 1011.4
20260509235339 20 253 0.0 0.0 0.00 2.03 2.03 99 1011.2
20260509234835 20 237 0.0 0.0 0.00 2.03 2.03 99 1011.4
20260509234332 20 192 0.0 1.6 0.00 2.03 2.03 99 1011.0
20260509233830 20 241 1.6 1.6 0.00 2.03 2.03 99 1011.3
20260509233328 20 234 3.2 3.2 0.00 2.03 2.03 99 1011.1
20260509232823 20 206 0.0 1.6 0.00 2.03 2.03 99 1011.1
20260509232321 20 243 1.6 3.2 0.00 2.03 2.03 99 1011.0
20260509231817 20 231 3.2 3.2 0.00 2.03 2.03 99 1010.8
20260509231314 20 248 0.0 0.0 0.00 2.03 2.03 99 1010.8
20260509230812 20 243 0.0 0.0 0.00 2.03 2.03 99 1010.7
20260509230309 20 241 0.0 0.0 0.00 2.03 2.03 99 1011.1
20260509225803 20 232 3.2 4.8 0.00 2.03 2.03 99 1010.8
20260509225300 20 272 0.0 0.0 0.00 2.03 2.03 99 1011.3
20260509224756 20 233 0.0 1.6 0.00 2.03 2.03 99 1011.0
20260509224253 20 244 1.6 4.8 0.00 2.03 2.03 99 1010.9
20260509223750 20 247 0.0 0.0 0.00 2.03 2.03 99 1011.2
20260509223247 20 252 4.8 9.7 0.00 2.03 2.03 99 1011.1
20260509222743 20 218 0.0 0.0 0.00 2.03 2.03 99 1010.8
20260509222239 20 189 4.8 8.0 0.00 2.03 2.03 99 1011.2
20260509221734 20 203 1.6 1.6 0.00 2.03 2.03 99 1011.2
20260509221231 21 230 3.2 4.8 0.00 2.03 2.03 99 1010.8
20260509220727 21 198 1.6 1.6 0.00 2.03 2.03 99 1010.8
20260509220224 21 246 0.0 0.0 0.00 2.03 2.03 99 1010.7
20260509215719 21 247 0.0 0.0 0.00 2.03 2.03 99 1010.7
20260509215216 21 252 0.0 0.0 0.00 2.03 2.03 99 1010.4
20260509214713 21 254 0.0 0.0 0.18 2.03 2.03 99 1010.4
20260509214210 21 254 0.0 0.0 0.30 2.03 2.03 99 1010.6
20260509213707 21 231 1.6 1.6 0.30 2.01 2.01 99 1010.5
20260509213202 21 203 3.2 3.2 0.30 1.98 1.98 99 1010.7
20260509212700 21 278 0.0 0.0 0.43 1.96 1.96 99 1010.7
20260509212157 21 253 0.0 0.0 0.48 1.93 1.93 99 1010.8
20260509211653 21 253 0.0 0.0 0.48 1.88 1.88 99 1010.6
20260509211150 21 263 0.0 0.0 0.61 1.85 1.85 99 1010.8
20260509210646 21 292 0.0 0.0 0.61 1.80 1.80 99 1010.5
20260509210143 21 290 0.0 0.0 0.61 1.75 1.75 99 1010.6
20260509205639 21 243 0.0 0.0 0.61 1.70 1.70 99 1010.8
20260509205138 20 257 0.0 0.0 0.66 1.65 1.65 99 1010.8
20260509204635 20 275 0.0 0.0 0.79 1.60 1.60 99 1011.0
20260509204131 20 275 0.0 0.0 0.71 1.55 1.55 99 1011.1
20260509203627 20 302 0.0 1.6 0.71 1.50 1.50 99 1011.1
20260509203126 20 316 1.6 1.6 0.79 1.42 1.42 99 1011.3
20260509202626 20 266 0.0 0.0 0.43 1.35 1.35 99 1011.3
20260509202121 21 253 0.0 0.0 0.30 1.30 1.30 99 1011.3
20260509201616 21 281 0.0 0.0 0.18 1.27 1.27 99 1011.1
20260509201114 21 267 0.0 0.0 0.00 1.24 1.24 99 1011.3
20260509200609 21 275 0.0 0.0 0.00 1.24 1.24 99 1011.2
20260509200105 21 274 0.0 0.0 0.00 1.24 1.24 99 1011.5
20260509195601 21 274 0.0 0.0 0.00 1.24 1.24 98 1011.3
20260509195056 21 274 0.0 0.0 0.00 1.24 1.24 98 1011.5
20260509194555 21 275 0.0 0.0 0.00 1.24 1.24 98 1011.4
20260509194054 21 267 0.0 0.0 0.00 1.24 1.24 97 1011.2
20260509193548 21 264 0.0 0.0 0.00 1.24 1.24 97 1011.2
20260509193045 21 271 0.0 0.0 0.00 1.24 1.24 97 1011.4
20260509192542 21 259 0.0 0.0 0.00 1.24 1.24 98 1011.2
20260509192037 21 258 0.0 0.0 0.00 1.24 1.24 97 1011.2
20260509191531 21 312 0.0 0.0 0.00 1.24 1.24 98 1011.2
20260509191027 21 297 0.0 0.0 0.00 1.24 1.24 98 1011.2
20260509190525 21 281 0.0 0.0 0.00 1.24 1.24 98 1011.4
20260509190023 21 280 0.0 0.0 0.00 1.24 1.24 97 1011.5
20260509185520 21 283 0.0 0.0 0.00 1.24 1.24 98 1011.4
20260509185016 21 283 0.0 0.0 0.00 1.24 1.24 98 1011.5
20260509184514 21 282 0.0 0.0 0.18 1.24 1.24 98 1011.2
20260509184010 21 277 0.0 0.0 0.18 1.24 1.24 97 1011.5
20260509183505 21 265 0.0 0.0 0.00 1.22 1.22 96 1011.5
20260509183001 21 257 0.0 0.0 0.00 1.22 1.22 96 1011.4
20260509182452 21 283 0.0 0.0 0.00 1.22 1.22 96 1011.5
20260509181949 21 254 0.0 0.0 0.00 1.22 1.22 94 1011.4
20260509181447 21 235 3.2 3.2 0.00 1.22 1.22 93 1011.6
20260509180944 21 248 0.0 0.0 0.00 1.22 1.22 94 1011.6
20260509180440 21 200 0.0 0.0 0.00 1.22 1.22 94 1011.4
20260509175937 21 254 0.0 0.0 0.00 1.22 1.22 95 1011.5
20260509175434 21 243 0.0 0.0 0.00 1.22 1.22 95 1011.6
20260509174930 21 287 0.0 0.0 0.00 1.22 1.22 95 1011.5
20260509174426 21 214 1.6 1.6 0.00 1.22 1.22 94 1011.7
20260509173921 21 246 0.0 0.0 0.00 1.22 1.22 94 1011.6
20260509173415 21 235 0.0 0.0 0.00 1.22 1.22 94 1011.7
20260509172912 21 234 1.6 1.6 0.00 1.22 1.22 95 1011.9
20260509172408 21 306 1.6 1.6 0.00 1.22 1.22 96 1011.8
20260509171904 21 234 0.0 0.0 0.00 1.22 1.22 96 1012.0
20260509171400 21 251 1.6 1.6 0.00 1.22 1.22 96 1012.0
20260509170852 21 270 0.0 0.0 0.00 1.22 1.22 96 1012.1
20260509170347 21 333 0.0 0.0 0.00 1.22 1.22 97 1012.2
20260509165842 21 278 0.0 0.0 0.00 1.22 1.22 99 1012.1
20260509165336 21 259 0.0 0.0 0.00 1.22 1.22 99 1012.4
20260509164832 20 298 0.0 0.0 0.00 1.22 1.22 99 1012.3
20260509164323 20 17 0.0 0.0 0.00 1.22 1.22 99 1012.1
20260509163820 20 275 0.0 0.0 0.00 1.22 1.22 99 1012.2
20260509163316 20 239 0.0 0.0 0.00 1.22 1.22 99 1012.4
20260509162816 20 251 0.0 0.0 0.00 1.22 1.22 99 1012.1
20260509162314 20 276 0.0 0.0 0.00 1.22 1.22 99 1012.2
20260509161811 20 240 0.0 0.0 0.00 1.22 1.22 99 1012.0
20260509161307 20 253 0.0 0.0 0.00 1.22 1.22 99 1012.1
20260509160802 20 255 0.0 0.0 0.00 1.22 1.22 99 1011.9
20260509160259 20 265 0.0 0.0 0.00 1.22 1.22 99 1011.9
20260509155754 20 291 0.0 1.6 0.00 1.22 1.22 99 1012.3
20260509155245 20 246 1.6 3.2 0.00 1.22 1.22 99 1012.0
20260509154741 20 251 0.0 1.6 0.00 1.22 1.22 99 1012.0
20260509154239 20 254 0.0 0.0 0.00 1.22 1.22 99 1011.9
20260509153736 20 239 0.0 0.0 0.00 1.22 1.22 99 1011.9
20260509153231 20 291 0.0 0.0 0.00 1.22 1.22 99 1011.6
20260509152728 20 291 0.0 0.0 0.00 1.22 1.22 99 1011.5
20260509152225 20 307 0.0 0.0 0.00 1.22 1.22 99 1011.4
20260509151722 20 250 0.0 0.0 0.00 1.22 1.22 99 1011.5
20260509151218 20 259 0.0 0.0 0.00 1.22 1.22 99 1011.5
20260509150716 20 248 0.0 0.0 0.00 1.22 1.22 99 1011.4
20260509150214 20 262 0.0 0.0 0.00 1.22 1.22 99 1011.5
20260509145710 20 288 0.0 0.0 0.00 1.22 1.22 99 1011.2
20260509145206 20 278 0.0 0.0 0.00 1.22 1.22 99 1011.6
20260509144702 19 275 0.0 0.0 0.00 1.22 1.22 99 1012.0
20260509144200 19 273 0.0 0.0 0.00 1.22 1.22 99 1011.5
20260509143657 19 273 0.0 0.0 0.00 1.22 1.22 99 1011.7
20260509143154 19 271 0.0 0.0 0.00 1.22 1.22 99 1011.7
20260509142650 19 260 0.0 0.0 0.00 1.22 1.22 99 1011.6
20260509142147 18 255 0.0 0.0 0.00 1.22 1.22 99 1011.5
20260509141642 18 240 0.0 0.0 0.00 1.22 1.22 99 1011.3
20260509141139 18 246 0.0 0.0 0.00 1.22 1.22 99 1011.3
20260509140636 18 248 0.0 0.0 0.00 1.22 1.22 99 1011.2
20260509140134 18 250 0.0 0.0 0.00 1.22 1.22 99 1011.4
20260509135631 18 278 0.0 0.0 0.00 1.22 1.22 99 1011.0
20260509135129 18 287 0.0 0.0 0.00 1.22 1.22 99 1011.2
20260509134625 18 262 0.0 0.0 0.00 1.22 1.22 99 1011.3
20260509134123 18 281 0.0 0.0 0.00 1.22 1.22 99 1011.4
20260509133620 18 281 0.0 0.0 0.00 1.22 1.22 99 1011.3
20260509133117 18 281 0.0 0.0 0.00 1.22 1.22 99 1011.4
20260509132615 18 259 0.0 0.0 0.00 1.22 1.22 99 1011.6
20260509132113 18 254 0.0 0.0 0.00 1.22 1.22 99 1011.3
20260509131609 18 254 0.0 0.0 0.00 1.22 1.22 99 1011.5
20260509131106 18 272 0.0 0.0 0.00 1.22 1.22 99 1011.4
20260509130602 18 254 0.0 0.0 0.00 1.22 1.22 99 1011.5
20260509130059 18 239 0.0 0.0 0.00 1.22 1.22 99 1011.7
20260509125555 18 251 0.0 0.0 0.00 1.22 1.22 99 1011.6
20260509125051 18 323 3.2 3.2 0.00 1.22 1.22 99 1011.7
20260509124548 17 281 0.0 0.0 0.00 1.22 1.22 99 1011.4
20260509124045 17 286 0.0 1.6 0.00 1.22 1.22 99 1011.5
20260509123543 17 286 0.0 0.0 0.00 1.22 1.22 99 1011.4
20260509123039 17 276 0.0 0.0 0.00 1.22 1.22 99 1011.5
20260509122536 17 255 0.0 0.0 0.00 1.22 1.22 99 1011.8
20260509122033 17 265 0.0 0.0 0.00 1.22 1.22 99 1011.6
20260509121529 17 299 1.6 1.6 0.00 1.22 1.22 99 1011.3
20260509121027 17 269 0.0 0.0 0.00 1.22 1.22 99 1011.6
20260509120525 17 255 0.0 0.0 0.00 1.22 1.22 99 1011.1
20260509120023 17 255 0.0 1.6 0.00 1.22 1.22 99 1011.3
20260509115520 17 279 0.0 0.0 0.00 1.22 1.22 99 1011.0
20260509115018 17 280 0.0 0.0 0.00 1.22 1.22 99 1011.3
20260509114516 17 257 0.0 0.0 0.00 1.22 1.22 99 1011.2
20260509114015 17 249 0.0 0.0 0.00 1.22 1.22 99 1010.9
20260509113512 17 244 1.6 1.6 0.00 1.22 1.22 99 1011.0
20260509113010 17 259 0.0 0.0 0.00 1.22 1.22 99 1010.7
20260509112506 17 241 0.0 1.6 0.00 1.22 1.22 99 1011.0
20260509112002 17 208 3.2 4.8 0.00 1.22 1.22 99 1010.7
20260509111500 17 242 0.0 0.0 0.00 1.22 1.22 99 1010.6
20260509110957 17 240 0.0 0.0 0.00 1.22 1.22 99 1010.4
20260509110453 17 245 0.0 0.0 0.00 1.22 1.22 99 1010.5
20260509105951 17 245 0.0 0.0 0.00 1.22 1.22 99 1010.4
20260509105449 17 253 0.0 0.0 0.00 1.22 1.22 99 1010.5
20260509104946 17 221 0.0 0.0 0.13 1.22 1.22 99 1010.8
20260509104443 17 276 0.0 0.0 0.30 1.22 1.22 99 1010.9
20260509103940 17 268 0.0 0.0 0.30 1.19 1.19 99 1011.1
20260509103438 17 291 0.0 0.0 0.30 1.17 1.17 99 1011.1
20260509102936 17 276 0.0 0.0 0.48 1.14 1.14 99 1010.7
20260509102433 17 233 0.0 0.0 0.43 1.12 1.12 99 1010.3
20260509101929 17 261 0.0 0.0 0.61 1.09 1.09 99 1010.2
20260509101425 17 262 0.0 0.0 0.61 1.04 1.04 99 1009.8
20260509100923 17 251 0.0 0.0 0.66 0.99 0.99 99 1009.9
20260509100420 17 282 0.0 0.0 0.61 0.97 0.97 99 1010.2
20260509095916 17 270 0.0 0.0 0.79 0.91 0.91 99 1009.6
20260509095414 17 232 0.0 0.0 0.71 0.84 0.84 99 1010.1
20260509094911 17 265 0.0 0.0 0.71 0.79 0.79 99 1010.0
20260509094407 18 244 0.0 0.0 0.89 0.74 0.74 99 1010.4
20260509093905 18 246 0.0 0.0 0.97 0.66 0.66 99 1010.4
20260509093402 18 221 1.6 1.6 1.07 0.58 0.58 99 1010.6
20260509092901 18 48 4.8 4.8 1.02 0.51 0.51 99 1010.8
20260509092357 18 249 0.0 0.0 1.07 0.43 0.43 99 1011.2
20260509091856 18 159 1.6 3.2 1.27 0.33 0.33 99 1011.6
20260509091352 18 245 3.2 3.2 1.19 0.23 0.23 99 1011.6
20260509090850 19 350 4.8 4.8 0.71 0.13 0.13 99 1011.6
20260509090347 19 50 11.3 16.1 0.13 0.03 0.03 99 1012.4
20260509085844 19 31 3.2 3.2 0.00 0.00 0.00 99 1011.3
20260509085341 19 235 0.0 0.0 0.00 0.00 0.00 99 1010.0
20260509084838 19 232 0.0 0.0 0.00 0.00 0.00 99 1009.6
20260509084335 19 236 0.0 0.0 0.00 0.00 0.00 99 1009.8
20260509083833 18 260 0.0 0.0 0.00 0.00 0.00 99 1009.9
20260509083329 18 261 0.0 0.0 0.00 0.00 0.00 99 1009.9
20260509082826 18 261 0.0 0.0 0.00 0.00 0.00 99 1009.8
20260509082322 18 262 0.0 0.0 0.00 0.00 0.00 99 1009.6
20260509081820 18 238 0.0 0.0 0.00 0.00 0.00 99 1009.6
20260509081317 18 238 0.0 0.0 0.00 0.00 0.00 99 1009.5
20260509080815 18 239 0.0 0.0 0.00 0.00 0.00 99 1009.4
20260509080313 18 239 0.0 0.0 0.00 0.00 0.00 99 1009.3
20260509075811 18 240 1.6 3.2 0.00 0.00 0.00 99 1009.4
20260509075307 18 235 0.0 0.0 0.00 0.00 0.00 99 1009.2
20260509074804 18 238 0.0 0.0 0.00 0.00 0.00 99 1009.5
20260509074302 18 266 0.0 0.0 0.00 0.00 0.00 99 1009.7
20260509073758 18 266 0.0 0.0 0.00 0.00 0.00 99 1009.5
20260509073254 18 265 0.0 0.0 0.00 0.00 0.00 99 1009.6
20260509072751 19 266 0.0 0.0 0.00 0.00 0.00 99 1009.6
20260509072248 19 242 1.6 1.6 0.00 0.00 0.00 99 1009.7
20260509071744 19 249 0.0 0.0 0.00 0.00 0.00 99 1009.7
20260509071242 18 234 0.0 1.6 0.00 0.00 0.00 99 1010.0
20260509070738 18 237 0.0 1.6 0.00 0.00 0.00 99 1010.1
20260509070235 18 257 0.0 0.0 0.00 0.00 0.00 99 1010.0
20260509065732 19 258 0.0 0.0 0.00 0.00 0.00 99 1010.1
20260509065227 19 258 0.0 0.0 0.00 0.00 0.00 99 1010.0
20260509064724 19 237 0.0 0.0 0.00 0.00 0.00 99 1010.2
20260509064222 19 226 0.0 0.0 0.00 0.00 0.00 99 1010.4
20260509063719 19 227 0.0 0.0 0.00 0.00 0.00 99 1010.8
20260509063215 19 239 0.0 0.0 0.00 0.00 0.00 99 1011.0
20260509062713 19 238 0.0 0.0 0.00 0.00 0.00 99 1011.1
20260509062210 19 239 0.0 0.0 0.00 0.00 0.00 99 1011.3
20260509061707 19 239 0.0 0.0 0.00 0.00 0.00 99 1011.2
20260509061204 19 238 0.0 0.0 0.00 0.00 0.00 99 1011.6
20260509060702 19 265 0.0 0.0 0.00 0.00 0.00 99 1011.4
20260509060158 19 272 0.0 0.0 0.00 0.00 0.00 99 1011.5
20260509055654 19 272 0.0 0.0 0.00 0.00 0.00 99 1011.8